DLH1300 EDDF-LTFM

Flight info

Callsign DLH1300
Flight time N/A
Altitude 36000
Route CINDY8S/18 CINDY Z74 HAREM DCT ASLEP DCT TAKUT L603 BESNI L605 MIQ DCT ALUTU DCT BIBAG DCT ESEGA DCT VELOM DCT GOTAR DCT NALOX DCT BABIT DCT ESIRI DCT ETIDA T390 RILEX
Aircraft A20N/M-SDE2E3FGHIRWXY/LB1

Departure

Time 2026-04-14 15:32
Airport Frankfurt Main Airport (EDDF)

Arrival

Time N/A
Airport İstanbul Airport (LTFM)
Time Latitude Longitude Altitude Speed Heading
2026-04-14 15:12 50.04598 8.57063 360 ft 0 kts 60°
2026-04-14 15:18 50.04590 8.57042 361 ft 3 kts 59°
2026-04-14 15:18 50.04586 8.57016 360 ft 3 kts 87°
2026-04-14 15:19 50.04585 8.56988 361 ft 3 kts 87°
2026-04-14 15:19 50.04585 8.56959 359 ft 3 kts 87°
2026-04-14 15:19 50.04584 8.56933 359 ft 3 kts 87°
2026-04-14 15:19 50.04583 8.56906 360 ft 2 kts 115°
2026-04-14 15:20 50.04592 8.56890 361 ft 0 kts 171°
2026-04-14 15:24 50.04586 8.56892 354 ft 2 kts 172°
2026-04-14 15:24 50.04565 8.56892 353 ft 4 kts 182°
2026-04-14 15:24 50.04530 8.56883 351 ft 6 kts 193°
2026-04-14 15:24 50.04490 8.56869 351 ft 6 kts 193°
2026-04-14 15:25 50.04454 8.56857 358 ft 5 kts 191°
2026-04-14 15:25 50.04427 8.56849 358 ft 3 kts 189°
2026-04-14 15:25 50.04413 8.56846 357 ft 1 kts 189°
2026-04-14 15:25 50.04381 8.56837 352 ft 10 kts 191°
2026-04-14 15:26 50.04321 8.56818 353 ft 8 kts 192°
2026-04-14 15:26 50.04258 8.56789 359 ft 10 kts 215°
2026-04-14 15:26 50.04224 8.56682 358 ft 14 kts 250°
2026-04-14 15:26 50.04184 8.56512 352 ft 20 kts 249°
2026-04-14 15:27 50.04129 8.56282 350 ft 23 kts 251°
2026-04-14 15:27 50.04072 8.56046 355 ft 24 kts 249°
2026-04-14 15:27 50.04014 8.55800 360 ft 24 kts 249°
2026-04-14 15:27 50.03957 8.55562 362 ft 22 kts 249°
2026-04-14 15:28 50.03908 8.55356 368 ft 21 kts 250°
2026-04-14 15:28 50.03849 8.55111 366 ft 27 kts 248°
2026-04-14 15:28 50.03779 8.54818 370 ft 30 kts 249°
2026-04-14 15:28 50.03703 8.54501 373 ft 32 kts 250°
2026-04-14 15:29 50.03632 8.54202 373 ft 27 kts 250°
2026-04-14 15:29 50.03569 8.53941 372 ft 26 kts 250°
2026-04-14 15:29 50.03508 8.53683 371 ft 25 kts 250°
2026-04-14 15:29 50.03447 8.53431 375 ft 24 kts 248°
2026-04-14 15:30 50.03395 8.53215 372 ft 22 kts 250°
2026-04-14 15:30 50.03338 8.52979 374 ft 21 kts 249°
2026-04-14 15:30 50.03292 8.52789 375 ft 18 kts 250°
2026-04-14 15:30 50.03274 8.52634 376 ft 7 kts 270°
2026-04-14 15:31 50.03239 8.52596 376 ft 7 kts 180°
2026-04-14 15:31 50.03094 8.52595 371 ft 47 kts 180°
2026-04-14 15:31 50.02604 8.52601 371 ft 102 kts 178°
2026-04-14 15:31 50.01721 8.52685 367 ft 148 kts 176°
2026-04-14 15:32 50.00660 8.52712 643 ft 158 kts 178°
2026-04-14 15:32 49.99537 8.52707 1171 ft 163 kts 180°
2026-04-14 15:32 49.98367 8.52671 1560 ft 178 kts 180°
2026-04-14 15:32 49.97051 8.52714 1902 ft 200 kts 176°
2026-04-14 15:33 49.95592 8.52925 2233 ft 219 kts 165°
2026-04-14 15:33 49.94197 8.53919 2778 ft 226 kts 147°
2026-04-14 15:33 49.92844 8.55307 3277 ft 239 kts 143°
2026-04-14 15:33 49.91462 8.56781 3859 ft 242 kts 143°
2026-04-14 15:34 49.90069 8.58277 4164 ft 245 kts 143°
2026-04-14 15:34 49.88583 8.59883 4104 ft 247 kts 143°
2026-04-14 15:34 49.87252 8.61316 4002 ft 247 kts 143°
2026-04-14 15:34 49.85821 8.62854 3994 ft 247 kts 143°
2026-04-14 15:35 49.84415 8.64361 3994 ft 247 kts 143°
2026-04-14 15:35 49.83021 8.65865 4078 ft 247 kts 143°
2026-04-14 15:35 49.81605 8.67389 4656 ft 248 kts 143°
2026-04-14 15:35 49.80233 8.68845 5259 ft 249 kts 143°
2026-04-14 15:36 49.78742 8.70546 5907 ft 248 kts 131°
2026-04-14 15:36 49.77806 8.72661 6449 ft 245 kts 117°
2026-04-14 15:36 49.77191 8.75103 6970 ft 247 kts 98°
2026-04-14 15:36 49.77005 8.77824 7618 ft 265 kts 90°
2026-04-14 15:37 49.76973 8.80518 8235 ft 236 kts 90°
2026-04-14 15:37 49.76941 8.82953 8626 ft 221 kts 90°
2026-04-14 15:37 49.76909 8.85324 8739 ft 220 kts 90°
2026-04-14 15:37 49.76877 8.87685 8743 ft 220 kts 90°
2026-04-14 15:38 49.76845 8.90063 8747 ft 221 kts 91°
2026-04-14 15:38 49.76807 8.92445 8755 ft 221 kts 92°
2026-04-14 15:38 49.76737 8.94817 8755 ft 221 kts 92°
2026-04-14 15:38 49.76656 8.97169 8749 ft 221 kts 92°
2026-04-14 15:39 49.76571 8.99537 9025 ft 222 kts 93°
2026-04-14 15:39 49.76482 9.01956 9892 ft 227 kts 94°
2026-04-14 15:39 49.76389 9.04425 10825 ft 231 kts 95°
2026-04-14 15:39 49.76295 9.06932 11729 ft 236 kts 95°
2026-04-14 15:40 49.76129 9.09478 12645 ft 239 kts 102°
2026-04-14 15:40 49.75774 9.12022 13579 ft 243 kts 104°
2026-04-14 15:40 49.75372 9.14541 14433 ft 246 kts 105°
2026-04-14 15:40 49.74943 9.17134 15209 ft 250 kts 108°
2026-04-14 15:41 49.74236 9.19594 15976 ft 252 kts 123°
2026-04-14 15:41 49.73236 9.21823 16828 ft 252 kts 129°
2026-04-14 15:41 49.72091 9.23905 17653 ft 255 kts 134°
2026-04-14 15:41 49.70876 9.25929 18516 ft 257 kts 135°
2026-04-14 15:42 49.69637 9.27953 19222 ft 261 kts 135°
2026-04-14 15:42 49.68393 9.30008 19963 ft 263 kts 135°
2026-04-14 15:42 49.67149 9.32112 20680 ft 266 kts 134°
2026-04-14 15:42 49.65904 9.34256 21401 ft 270 kts 134°
2026-04-14 15:43 49.64654 9.36441 22082 ft 274 kts 134°
2026-04-14 15:43 49.63390 9.38665 22755 ft 278 kts 134°
2026-04-14 15:43 49.62179 9.41024 23400 ft 285 kts 120°
2026-04-14 15:43 49.61399 9.43867 23988 ft 290 kts 114°
2026-04-14 15:44 49.60680 9.46752 24532 ft 294 kts 112°
2026-04-14 15:44 49.59989 9.49791 25064 ft 299 kts 111°
2026-04-14 15:44 49.59332 9.52844 25610 ft 302 kts 110°
2026-04-14 15:44 49.58690 9.55899 26152 ft 305 kts 110°
2026-04-14 15:45 49.58033 9.59028 26697 ft 308 kts 109°
2026-04-14 15:45 49.57368 9.62179 27223 ft 311 kts 109°
2026-04-14 15:45 49.56693 9.65351 27737 ft 314 kts 109°
2026-04-14 15:45 49.56003 9.68568 28256 ft 316 kts 109°
2026-04-14 15:46 49.55296 9.71841 28772 ft 319 kts 109°
2026-04-14 15:46 49.54597 9.75068 29257 ft 322 kts 109°
2026-04-14 15:46 49.53881 9.78364 29735 ft 325 kts 109°
2026-04-14 15:46 49.53145 9.81666 30199 ft 328 kts 113°
2026-04-14 15:47 49.51941 9.84664 30547 ft 330 kts 129°
2026-04-14 15:47 49.50571 9.87469 30897 ft 333 kts 128°
2026-04-14 15:47 49.49136 9.90312 31263 ft 336 kts 130°
2026-04-14 15:47 49.47675 9.93123 31679 ft 337 kts 130°
2026-04-14 15:48 49.46183 9.95945 32018 ft 341 kts 130°
2026-04-14 15:48 49.44672 9.98787 32332 ft 344 kts 130°
2026-04-14 15:48 49.43147 10.01648 32640 ft 348 kts 130°
2026-04-14 15:48 49.41626 10.04506 32968 ft 351 kts 130°
2026-04-14 15:49 49.40068 10.07436 33276 ft 354 kts 129°
2026-04-14 15:49 49.38499 10.10390 33577 ft 357 kts 129°
2026-04-14 15:49 49.36925 10.13355 33875 ft 360 kts 129°
2026-04-14 15:49 49.35332 10.16352 34166 ft 363 kts 129°
2026-04-14 15:50 49.33726 10.19371 34415 ft 366 kts 129°
2026-04-14 15:50 49.32109 10.22406 34672 ft 369 kts 129°
2026-04-14 15:50 49.30482 10.25457 34925 ft 371 kts 129°
2026-04-14 15:50 49.28837 10.28538 35196 ft 372 kts 130°
2026-04-14 15:51 49.26817 10.32316 35538 ft 374 kts 130°
2026-04-14 15:51 49.24038 10.37450 35906 ft 378 kts 134°
2026-04-14 15:51 49.22019 10.40635 36131 ft 381 kts 135°
2026-04-14 15:52 49.18420 10.46088 36228 ft 383 kts 136°
2026-04-14 15:52 49.14606 10.51736 36241 ft 383 kts 136°
2026-04-14 15:53 49.10773 10.57395 36233 ft 383 kts 136°
2026-04-14 15:53 49.06935 10.63065 36233 ft 383 kts 136°
2026-04-14 15:54 49.01196 10.71528 36227 ft 382 kts 136°
2026-04-14 15:55 48.97376 10.77138 36224 ft 382 kts 137°
2026-04-14 15:55 48.93552 10.82741 36215 ft 381 kts 137°
2026-04-14 15:56 48.89724 10.88345 36204 ft 381 kts 137°
2026-04-14 15:56 48.85903 10.93936 36200 ft 383 kts 137°
2026-04-14 15:57 48.81989 10.99648 36202 ft 401 kts 137°
2026-04-14 15:57 48.77931 11.05558 36176 ft 396 kts 137°
2026-04-14 15:57 48.75977 11.08399 36175 ft 384 kts 137°
2026-04-14 15:58 48.74057 11.11181 36181 ft 379 kts 137°
2026-04-14 15:58 48.70241 11.16693 36184 ft 379 kts 137°
2026-04-14 15:59 48.66481 11.22218 36181 ft 379 kts 132°
2026-04-14 15:59 48.63668 11.28941 36184 ft 380 kts 112°
2026-04-14 16:00 48.61874 11.36481 36186 ft 381 kts 109°
2026-04-14 16:00 48.60289 11.44121 36183 ft 380 kts 108°
2026-04-14 16:01 48.58727 11.51689 36185 ft 380 kts 108°
2026-04-14 16:01 48.57164 11.59317 36180 ft 380 kts 104°
2026-04-14 16:02 48.55950 11.67103 36183 ft 380 kts 103°
2026-04-14 16:02 48.54809 11.74891 36179 ft 380 kts 103°
2026-04-14 16:03 48.53677 11.82707 36177 ft 380 kts 103°
2026-04-14 16:03 48.52546 11.90455 36167 ft 380 kts 104°
2026-04-14 16:04 48.51399 11.98233 36175 ft 380 kts 104°
2026-04-14 16:04 48.50236 12.06069 36172 ft 380 kts 104°
2026-04-14 16:05 48.49077 12.13822 36168 ft 380 kts 104°
2026-04-14 16:05 48.47906 12.21597 36159 ft 380 kts 104°
2026-04-14 16:06 48.46728 12.29374 36160 ft 380 kts 104°
2026-04-14 16:06 48.45545 12.37142 36160 ft 380 kts 104°
2026-04-14 16:07 48.44366 12.44854 36159 ft 380 kts 104°
2026-04-14 16:07 48.43173 12.52619 36160 ft 380 kts 104°
2026-04-14 16:08 48.42156 12.59210 36159 ft 379 kts 104°
2026-04-14 16:09 48.39926 12.73508 36158 ft 379 kts 107°
2026-04-14 16:09 48.38568 12.79905 36159 ft 378 kts 110°
2026-04-14 16:10 48.34491 12.97489 36160 ft 378 kts 111°